Flag for Austria Past Weather in Feldkirchen in Kärnten, Carinthia, Austria — Yesterday and Last 2 Weeks

Now
84 °F

Scattered clouds.


Feels Like: 84 °F
Forecast: 58 / 80 °F
Wind: N/A

Location: Klagenfurt-Flughafen

Current Time: Jul 23, 2016 at 5:10:19 PM

Latest Report: Jul 23, 2016 at 4:00 PM


Visibility: 18 mi

Pressure: 29.93 "Hg (28.15 "Hg at 541m altitude)

Humidity: 43%

Dew Point: 59 °F

Location of Feldkirchen in KärntenLocation

Past Weather in Feldkirchen in Kärnten — Graph

°F

Feldkirchen in Kärnten Temperature Yesterday

Maximum temperature yesterday: 83 °F (at 5:00 PM)
Minimum temperature yesterday: 64 °F (at 7:00 AM)
Average temperature yesterday: 71 °F

High & Low Weather Summary for the Past Weeks

 TemperatureHumidityPressure
High91 °F (Jul 11, 5:00 PM)95% (Jul 22, 3:00 AM)30.20 "Hg (Jul 22, 3:00 AM)
Low48 °F (Jul 16, 6:00 AM)31% (Jul 14, 5:00 PM)29.73 "Hg (Jul 12, 5:00 PM)
Average70 °F67%30.00 "Hg
* Reported Jul 8 4:00 PM — Jul 23 4:00 PM, Feldkirchen in Kärnten, Weather by CustomWeather, © 2016

Note: Actual official high and low records may vary slightly from our data, if they occured in-between our weather recording intervals... More about our weather records

Advertising

Feldkirchen in Kärnten Weather History for the Previous 24 Hours

Scroll right to see more
 ConditionsComfort  
Time TempWeatherWind HumidityBarometerVisibility
4:00 PM
Sat, Jul 23
84 °FScattered clouds.N/A43%29.93 "Hg18 mi
3:00 PM82 °FScattered clouds.N/A50%29.94 "Hg18 mi
2:00 PM80 °FScattered clouds.N/A54%29.96 "Hg19 mi
1:00 PM78 °FPassing clouds.N/A60%29.97 "Hg15 mi
12:00 PM76 °FPassing clouds.N/A60%29.99 "Hg16 mi
11:00 AM73 °FScattered clouds.N/A69%30.01 "Hg16 mi
10:00 AM69 °FPartly sunny.N/A76%30.02 "Hg25 mi
9:00 AM69 °FPartly sunny.N/A77%30.02 "Hg14 mi
8:00 AM65 °FOvercast.N/A86%30.03 "Hg15 mi
7:00 AM62 °FPartly sunny.N/A92%30.03 "Hg11 mi
6:00 AM61 °FPassing clouds.N/A93%30.03 "Hg14 mi
5:00 AM62 °FCool.N/A93%30.02 "Hg11 mi
4:00 AM62 °FCool.N/A92%30.02 "Hg10 mi
3:00 AM64 °FMild.N/A91%30.02 "Hg9 mi
2:00 AM65 °FMild.N/A89%30.02 "Hg15 mi
1:00 AM66 °FMild.N/A83%30.01 "Hg17 mi
12:00 AM68 °FPassing clouds.N/A78%30.01 "Hg28 mi
11:00 PM
Fri, Jul 22
69 °FPassing clouds.N/A75%29.99 "Hg28 mi
10:00 PM71 °FPassing clouds.N/A74%29.98 "Hg28 mi
9:00 PM73 °FOvercast.N/A67%29.94 "Hg19 mi
8:00 PM79 °FOvercast.3 mph64%29.91 "Hg16 mi
7:00 PM80 °FPartly sunny.N/A65%29.88 "Hg7 mi
6:00 PM82 °FScattered clouds.N/A57%29.87 "Hg19 mi
5:00 PM83 °FScattered clouds.N/A54%29.87 "Hg22 mi
Weather by CustomWeather, © 2016

See weather overviewHow to use our weather pages